Home   Weather   Sanikiluaq   Past weeks

Flag for Canada Past Weather in Sanikiluaq, Nunavut, Canada — Yesterday and Last 2 Weeks

Now
55 °F

Clear.


Feels Like: 55 °F
Forecast: 44 / 49 °F
Wind: No wind

Location: Kuujjuarapik

Current Time: Aug 31, 2016 at 2:31:30 AM

Latest Report: Aug 31, 2016 at 2:00 AM


Visibility: 9 mi

Pressure: 29.85 "Hg

Humidity: 94%

Dew Point: 54 °F

Location of SanikiluaqLocation

Past Weather in Sanikiluaq — Graph

°F

Sanikiluaq Temperature Yesterday

Maximum temperature yesterday: 63 °F (at 5:00 PM)
Minimum temperature yesterday: 55 °F (at 7:00 AM)
Average temperature yesterday: 60 °F

High & Low Weather Summary for the Past Weeks

 TemperatureHumidityPressure
High68 °F (Aug 19, 2:00 PM)100% (Aug 18, 1:00 AM)30.18 "Hg (Aug 18, 1:00 AM)
Low41 °F (Aug 24, 11:53 PM)56% (Aug 18, 3:00 PM)29.39 "Hg (Aug 21, 2:00 PM)
Average52 °F88%29.84 "Hg
* Reported Aug 16 1:00 AM — Aug 31 1:00 AM, Sanikiluaq, Weather by CustomWeather, © 2016

Note: Actual official high and low records may vary slightly from our data, if they occured in-between our weather recording intervals... More about our weather records

Advertising

Sanikiluaq Weather History for the Previous 24 Hours

Scroll right to see more
 ConditionsComfort  
Time TempWeatherWind HumidityBarometerVisibility
1:00 AM
Wed, Aug 31
57 °FOvercast.2 mph100%29.84 "Hg9 mi
12:00 AM59 °FMostly cloudy.No wind94%29.84 "Hg9 mi
11:00 PM
Tue, Aug 30
59 °FOvercast.2 mph94%29.84 "Hg9 mi
10:00 PM59 °FOvercast.5 mph94%29.84 "Hg9 mi
9:00 PM59 °FOvercast.6 mph94%29.84 "Hg9 mi
8:00 PM61 °FMore clouds than sun.5 mph94%29.84 "Hg9 mi
7:00 PM61 °FLight rain. Mostly cloudy.8 mph94%29.84 "Hg9 mi
6:55 PM61 °FLight rain. Mostly cloudy.9 mph94%29.84 "Hg9 mi
6:00 PM61 °FOvercast.9 mph94%29.84 "Hg9 mi
5:00 PM63 °FOvercast.12 mph94%29.84 "Hg9 mi
4:46 PM61 °FOvercast.9 mph94%29.85 "Hg9 mi
4:00 PM61 °FLight rain. Mostly cloudy.12 mph94%29.85 "Hg9 mi
3:00 PM61 °FLight rain. Fog.9 mph94%29.85 "Hg6 mi
2:55 PM61 °FLight rain. Fog.8 mph94%29.86 "Hg6 mi
2:02 PM61 °FLight rain. Fog.12 mph94%29.87 "Hg5 mi
1:54 PM59 °FLight rain. Fog.10 mph94%29.87 "Hg6 mi
1:00 PM59 °FLight rain. Fog.9 mph94%29.87 "Hg2 mi
12:45 PM59 °FLight rain. Fog.9 mph94%29.87 "Hg3 mi
12:00 PM61 °FLight rain. Mostly cloudy.13 mph88%29.87 "Hg9 mi
11:55 AM61 °FLight rain. Mostly cloudy.10 mph88%29.87 "Hg9 mi
11:00 AM59 °FLight rain. More clouds than sun.12 mph94%29.88 "Hg9 mi
10:00 AM59 °FLight rain. Mostly cloudy.15 mph88%29.88 "Hg9 mi
9:00 AM59 °FPartly sunny.12 mph82%29.89 "Hg9 mi
8:00 AM57 °FPartly sunny.12 mph88%29.90 "Hg9 mi
7:00 AM55 °FLight rain. Overcast.9 mph94%29.92 "Hg9 mi
6:00 AM59 °FLight rain. Mostly cloudy.8 mph82%29.93 "Hg9 mi
5:00 AM57 °FLight rain. Overcast.8 mph88%29.95 "Hg9 mi
4:00 AM59 °FLight rain. Overcast.6 mph77%29.96 "Hg9 mi
3:53 AM59 °FLight rain. Overcast.6 mph77%29.96 "Hg9 mi
3:00 AM59 °FOvercast.5 mph72%29.98 "Hg9 mi
2:00 AM59 °FOvercast.5 mph72%29.99 "Hg9 mi
Weather by CustomWeather, © 2016

See weather overviewHow to use our weather pages